Regional Weather Roundup
Issued by NWS Sioux Falls, SD

Home | Current Version | Previous Version | Text Only | Print | Product List | Glossary On
Versions: 1 2 3 4 5 6 7 8 9 10 11 12 13 14 15 16 17 18 19 20 21 22 23 24 25 26 27 28 29 30 31 32 33 34 35 36 37 38 39 40 41 42 43 44 45 46 47 48 49 50
000
ASUS43 KFSD 310810
RWRFSD

WEATHER ROUNDUP FOR SE SOUTH DAKOTA/SW MINNESOTA/NW IOWA
NATIONAL WEATHER SERVICE SIOUX FALLS SD
200 AM CST SAT JAN 31 2015

NOTE: "FAIR" INDICATES FEW OR NO CLOUDS BELOW 12,000 FEET WITH NO
SIGNIFICANT WEATHER AND OR OBSTRUCTIONS TO VISIBILITY.


SDZ038>040-050-052>070-310900-
SOUTHEAST SOUTH DAKOTA

CITY           SKY/WX    TMP DP  RH WIND       PRES   REMARKS
CHAMBERLAIN    MOCLDY    26  23  88 CALM      30.10F
HURON          CLEAR     25  22  88 N9        30.12S WCI  15
MADISON        FAIR      27  27 100 NW3       30.09S
MITCHELL       PTCLDY    25  23  92 NW7       30.11F WCI  17
SIOUX FALLS    PTCLDY    27  24  89 CALM      30.11S
WINNER         FAIR      28  22  78 W5        30.09F WCI  23
YANKTON        FAIR      36  27  69 SW6       30.12F
$$

MNZ071-072-080-081-089-090-097-098-310900-
SOUTHWEST MINNESOTA

CITY           SKY/WX    TMP DP  RH WIND       PRES   REMARKS
FAIRMONT       CLEAR     27  21  80 SW7       30.12S WCI  19
JACKSON        CLEAR     30  25  80 SW13      30.12S WCI  20
LUVERNE        PTCLDY    27  25  93 S3        30.12S FOG
MARSHALL       CLEAR     27  21  80 NW9       30.14R WCI  17
MONTEVIDEO     CLEAR     25  25 100 N8        30.14S WCI  16
PIPESTONE      FAIR      28  27  93 CALM      30.10S
REDWOOD FALLS  CLEAR     25  23  92 W7        30.12S WCI  17
TRACY          CLEAR     29  26  89 W6        30.12S WCI  23
WINDOM         CLEAR     27  25  93 CALM      30.11S
WORTHINGTON    CLEAR     28  23  80 SW9       30.12R WCI  20
$$

IAZ001>003-012>014-020>022-031-032-NEZ013-014-SDZ071-310900-
NORTHWEST IOWA

CITY           SKY/WX    TMP DP  RH WIND       PRES   REMARKS
CHEROKEE       CLEAR     28  26  92 S5        30.15F WCI  23
DENISON        PTCLDY    28  27  93 S5        30.17S WCI  23
ESTHERVILLE    PTCLDY    28  23  81 SW9       30.12F WCI  19
LE MARS        CLEAR     28  27  93 S6        30.15S WCI  22
ORANGE CITY    CLEAR     28  25  86 S6        30.13S WCI  22
SHELDON        CLEAR     28  27  93 SW8       30.11F WCI  20
SIOUX CITY     PTCLDY    27  24  89 MISG      30.16F
SPENCER        CLEAR     29  23  78 SW5       30.14S WCI  24
STORM LAKE     CLEAR     30  27  86 SW9       30.15F WCI  22
$$

ABBREVIATIONS USED IN REMARKS
   TC - TEMPERATURE IN CELSIUS
  WCI - WIND CHILL INDEX
   HX - HEAT INDEX
  VSB - VISIBILITY



USA.gov is the U.S. government's official web portal to all federal, state and local government web resources and services.